Flag for Canada Weather past 2 weeks in Morden, Manitoba, Canada

Now
72 °F

Mild.


Feels Like: 75 °F
Forecast: 43 / 74 °F
Wind: 15 mph from Southwest

Location: Morden CDA CS

Current Time: May 5, 2015 at 1:30:14 PM

Latest Report: May 5, 2015 at 1:00 PM


Visibility: N/A

Pressure: 30.06 "Hg

Humidity: 18%

Dew point: 26 °F

Location of MordenLocation

Historic Weather in Morden — Graph

°F

Morden temperature yesterday

Maximum temperature yesterday: 68 °F (at 6:00 PM)
Minimum temperature yesterday: 35 °F (at 4:00 AM)
Average temperature yesterday: 53 °F

Past Weeks' High & Low Weather Summary

 TemperatureHumidityPressure
High82 °F (May 2, 1:00 PM)100% (Apr 27, 10:00 PM)30.34 "Hg (Apr 27, 10:00 PM)
Low18 °F (Apr 23, 7:00 AM)13% (May 2, 3:00 PM)29.51 "Hg (May 2, 6:00 PM)
Average50 °F49%29.98 "Hg
* Reported Apr 20 12:00 Noon — May 5 12:00 Noon, Morden, Weather by CustomWeather, © 2015

Note: Actual official high and low records may vary slightly from our data, if they occured in-between our weather recording intervals... More about our weather records

Advertising

Morden weather history for previous 24 hours

 ConditionsComfort  
Time TempWeatherWind HumidityBarometerVisibility
12:00 PM
Tue, May 5
72 °FMild.14 mph18%30.08 "HgN/A
11:00 AM68 °FMild.17 mph20%30.10 "HgN/A
10:00 AM68 °FMild.16 mph20%30.11 "HgN/A
9:00 AM65 °FMild.16 mph22%30.12 "HgN/A
8:00 AM62 °FRefreshingly cool.12 mph25%30.12 "HgN/A
7:00 AM55 °FRefreshingly cool.7 mph31%30.12 "HgN/A
6:00 AM51 °FCool.3 mph36%30.12 "HgN/A
5:00 AM52 °FCool.6 mph34%30.12 "HgN/A
4:00 AM53 °FCool.6 mph32%30.13 "HgN/A
3:00 AM53 °FCool.6 mph35%30.13 "HgN/A
2:00 AM45 °FQuite cool.2 mph50%30.14 "HgN/A
1:00 AM45 °FCool.3 mph51%30.15 "HgN/A
12:00 AM46 °FCool.3 mph49%30.15 "HgN/A
11:00 PM
Mon, May 4
46 °FCool.3 mph53%30.16 "HgN/A
10:00 PM52 °FCool.1 mph42%30.16 "HgN/A
9:00 PM58 °FRefreshingly cool.2 mph30%30.14 "HgN/A
8:00 PM65 °FMild.2 mph23%30.14 "HgN/A
7:00 PM67 °FMild.7 mph21%30.14 "HgN/A
6:00 PM68 °FMild.5 mph23%30.14 "HgN/A
5:00 PM67 °FMild.8 mph18%30.15 "HgN/A
4:00 PM65 °FMild.6 mph20%30.17 "HgN/A
3:00 PM66 °FMild.8 mph19%30.19 "HgN/A
2:00 PM64 °FMild.7 mph23%30.20 "HgN/A
1:00 PM63 °FMild.9 mph25%30.21 "HgN/A
Weather by CustomWeather, © 2015

See weather overviewHow to use our weather pages